ARIANE 44LP DEB, 33541

Orbit data source: Space-Track

ARIANE 44LP DEB, 33541 is space debris in HEO originally from a launch on Sun, 11 Dec 1988 UTC launched from the French Guiana (FRGUI). Debris objects in space refer to the collection of defunct objects orbiting the Earth. Examples of debris include non-operational satellites, rocket bodies, and fragments generated from explosions, collisions, or faulty payload assembly.

Loading next visibility...
Identifier
33541, 1988-109Q
Orbit
HEO
Country
Flag of FRFR
Related business
Manufacturer
Unknown
Mission
Spacecraft
Bus & Motor
Unknown
Mass
Unknown
Launch date (UTC)
1988-12-11 (37 years ago)
Launch vehicle
Unknown
Launch site
French Guiana (FRGUI)
Object type
Payload
Rocket body
Debris
Shape & HBR
Unknown shape, 0.3 m
Radar Cross Section
Medium (>0.1 m² and <1 m²)

Expand to show TLE details & history
Last TLE update: 12 hours ago

TLE from 12 hours ago
0 ARIANE 44LP DEB
1 33541U 88109Q   25310.56127624 -.00000131  00000-0 -14185-2 0  9994
2 33541   7.2186 358.7284 7092823 181.0233 273.1141  2.23954602187332
Epoch: 2025-11-06T13:28Z
TLE epoch observation values (Epoch: 2025-11-06T13:28:14.267Z)
Latitude
3.28219°
Longitude
137.49601°
Altitude
27,493.705 km
Speed
2.717 km/s
True Right ascension
01h 42m 17s
True Declination
3° 16' 41"
Sunlit
Object was in daylight at epoch
Visualization orbit readout
Latitude
Unknown
Longitude
Unknown
Altitude
Unknown
Speed
Unknown
Apparent Right ascension
Unknown
Apparent Declination
Unknown
Sunlit
N/A
Visualization observer readout
Local Sidereal Time
21:55:39
Azimuth
Unknown
Elevation
Unknown
Doppler factor
Unknown
Orbital elements
Apogee altitude
35,810.626 km
Perigee altitude
797.401 km
Semi-major axis
24,682.15 km
Eccentricity
0.70928
Inclination
7.2186°
RAAN
358.7284°
Arg. of periapsis
181.0233°
True anomaly
205.99645°
Mean anomaly
273.1141°
Eccentric anomaly
238.47356°
Mean motion
0.55972 °/min
Orbital period
643.18 mins
BSTAR
-0.0014185
Loading maneuver chart data...
Computing Atmospheric mass density...
Loading historical data...
Loading historical data...
Loading historical data...
Loading historical data...
Loading historical data...
Loading historical data...
Loading historical data...

Documentation

Showing up to 5 results
|